FW2980 Weather Reports


time (UTC)temp
F
wind
direction
speed
knots
gust
knots
rain 1hr
in
rain 24hr
in
rain mn
in
humidity
%
barometer
mb
20260906190014 80 360 7.0 12.2 0.00 0.00 0.00 55 1016.9
20260906184513 81 360 6.1 19.1 0.00 0.00 0.00 54 1017.2
20260906183011 82 360 5.2 11.3 0.00 0.00 0.00 52 1016.7
20260906181511 82 360 3.5 7.8 0.00 0.00 0.00 53 1016.7
20260906180010 82 355 4.3 7.8 0.00 0.00 0.00 53 1016.7
20260906174508 82 360 3.5 7.0 0.00 0.01 0.00 55 1016.4
20260906173004 80 360 3.5 7.8 0.00 0.01 0.00 55 1016.4
20260906171501 80 270 7.8 12.2 0.00 0.01 0.00 56 1016.7
20260906170109 80 277 4.3 7.0 0.00 0.01 0.00 56 1016.8
20260906164556 80 262 0.0 4.3 0.00 0.04 0.00 57 1017.0
20260906163053 80 360 0.9 5.2 0.00 0.04 0.00 57 1016.7
20260906161551 80 360 1.7 5.2 0.00 0.04 0.00 58 1016.6
20260906160048 79 183 2.6 7.0 0.00 0.04 0.00 58 1016.4
20260906154545 79 191 2.6 6.1 0.00 0.04 0.00 58 1017.0
20260906153043 79 360 1.7 8.7 0.00 0.04 0.00 59 1016.4
20260906151550 79 200 0.9 4.3 0.00 0.04 0.00 60 1016.3
20260906150042 78 217 0.9 2.6 0.00 0.04 0.00 60 1016.4
20260906144540 78 217 0.0 4.3 0.00 0.04 0.00 60 1016.6
20260906143036 78 183 0.9 4.3 0.00 0.04 0.00 60 1016.3
20260906141536 77 360 2.6 7.8 0.00 0.04 0.00 64 1016.0
20260906140035 77 360 1.7 5.2 0.00 0.04 0.00 65 1015.8
20260906134534 77 360 2.6 8.7 0.00 0.04 0.00 65 1015.7
20260906133036 77 184 4.3 8.7 0.00 0.04 0.00 65 1016.1
20260906131530 77 360 3.5 7.8 0.00 0.04 0.00 65 1015.9
20260906130027 77 360 3.5 7.8 0.00 0.04 0.00 65 1015.8
20260906124530 77 360 4.3 9.6 0.00 0.04 0.00 66 1015.8
20260906123032 77 360 2.6 7.0 0.00 0.04 0.00 65 1015.6
20260906121518 77 360 2.6 5.2 0.00 0.04 0.00 65 1015.7
20260906120015 77 360 2.6 7.0 0.00 0.04 0.00 65 1015.4
20260906114518 77 360 5.2 8.7 0.00 0.04 0.00 66 1015.2
20260906113014 77 360 4.3 9.6 0.00 0.04 0.00 66 1015.1
20260906111512 77 360 2.6 7.0 0.00 0.04 0.00 66 1015.1
20260906110011 77 360 2.6 8.7 0.00 0.04 0.00 65 1014.9
20260906104511 77 157 3.5 7.8 0.00 0.04 0.00 65 1014.9
20260906103019 77 360 3.5 7.0 0.00 0.04 0.00 64 1014.8
20260906101507 77 360 3.5 7.8 0.00 0.04 0.00 64 1014.9
20260906100019 77 172 2.6 7.8 0.00 0.04 0.00 64 1014.8
20260906094505 78 360 4.3 8.7 0.00 0.04 0.00 64 1014.6
20260906093002 77 360 3.5 7.0 0.00 0.04 0.00 64 1014.7
20260906091500 77 360 3.5 7.0 0.00 0.04 0.00 64 1014.9
20260906084559 78 360 2.6 4.3 0.00 0.04 0.00 63 1015.2
20260906083100 78 360 2.6 7.0 0.00 0.04 0.00 63 1015.1
20260906081556 78 360 2.6 7.0 0.00 0.04 0.00 63 1014.9
20260906080056 78 360 1.7 4.3 0.00 0.04 0.00 63 1014.9
20260906074554 78 360 2.6 4.3 0.00 0.04 0.00 63 1014.7
20260906073052 78 360 2.6 5.2 0.00 0.04 0.00 63 1014.7
20260906071551 78 360 1.7 4.3 0.00 0.04 0.00 63 1015.0
20260906070050 78 360 2.6 5.2 0.00 0.04 0.00 62 1014.9
20260906064549 78 360 2.6 4.3 0.00 0.04 0.00 62 1015.1
20260906063047 79 130 2.6 6.1 0.00 0.04 0.00 62 1015.0
20260906061547 79 360 2.6 4.3 0.00 0.04 0.00 62 1015.1
20260906060045 79 360 2.6 5.2 0.00 0.04 0.00 62 1015.2
20260906054544 79 360 0.9 3.5 0.00 0.04 0.00 62 1015.2
20260906053042 79 360 1.7 4.3 0.00 0.04 0.00 62 1015.1
20260906051641 79 360 1.7 5.2 0.00 0.04 0.00 62 1014.9
20260906050040 79 360 1.7 3.5 0.00 0.04 0.00 62 1015.0
20260906044542 79 360 1.7 3.5 0.00 0.04 0.04 61 1015.0
20260906043039 79 360 1.7 3.5 0.00 0.04 0.04 61 1015.1
20260906041536 80 360 1.7 3.5 0.00 0.04 0.04 61 1015.2
20260906040036 80 360 0.0 2.6 0.00 0.04 0.04 60 1015.4
20260906034536 80 360 0.9 3.5 0.00 0.04 0.04 59 1015.4
20260906033037 80 360 1.7 4.3 0.00 0.04 0.04 59 1015.0
20260906031534 81 360 1.7 4.3 0.00 0.04 0.04 58 1015.0
20260906030034 81 360 3.5 5.2 0.00 0.04 0.04 59 1014.6
20260906024536 81 360 2.6 5.2 0.00 0.04 0.04 58 1014.6
20260906023036 81 360 2.6 5.2 0.00 0.04 0.04 58 1014.7
20260906021540 82 360 1.7 7.0 0.00 0.04 0.04 58 1014.5
20260906020032 82 140 2.6 4.3 0.00 0.04 0.04 58 1014.2
20260906014536 82 360 2.6 5.2 0.00 0.04 0.04 57 1014.0
20260906013039 83 360 3.5 7.8 0.00 0.04 0.04 57 1013.8
20260906011533 83 360 2.6 5.2 0.00 0.04 0.04 57 1013.9
20260906010031 83 360 1.7 3.5 0.00 0.04 0.04 56 1014.0
20260906004529 84 360 2.6 5.2 0.00 0.04 0.04 55 1014.0
20260906003028 85 110 1.7 7.8 0.00 0.04 0.04 53 1013.9
20260906001527 86 360 1.7 7.8 0.00 0.04 0.04 52 1013.7
20260906000027 87 360 3.5 8.7 0.00 0.04 0.04 50 1013.5
20260905234525 88 100 5.2 9.6 0.00 0.04 0.04 49 1013.6
20260905233024 89 360 3.5 8.7 0.00 0.04 0.04 48 1013.4
20260905231522 90 360 6.1 9.6 0.00 0.04 0.04 46 1013.3
20260905230020 90 105 4.3 9.6 0.00 0.04 0.04 46 1013.1
20260905224524 90 152 5.2 10.4 0.00 0.04 0.04 44 1013.0
20260905223017 91 360 5.2 12.2 0.00 0.04 0.04 45 1012.9
20260905221515 91 360 7.0 13.9 0.00 0.04 0.04 43 1012.8
20260905220013 91 98 6.1 15.6 0.00 0.04 0.04 42 1012.7
20260905214513 91 360 8.7 12.2 0.00 0.04 0.04 41 1012.8
20260905213009 91 360 6.1 14.8 0.00 0.04 0.04 42 1012.8
20260905211506 91 360 7.0 14.8 0.00 0.04 0.04 40 1013.2
20260905210002 91 163 7.8 15.6 0.00 0.04 0.04 40 1012.8
20260905204558 91 360 6.1 15.6 0.00 0.04 0.04 42 1013.0
20260905203055 90 183 7.0 13.0 0.00 0.04 0.04 42 1012.9
20260905201554 91 360 7.8 17.4 0.00 0.04 0.04 41 1012.8
20260905200056 90 360 5.2 12.2 0.00 0.04 0.04 42 1012.8
20260905194553 89 360 5.2 10.4 0.00 0.04 0.04 42 1012.9
20260905193050 88 191 6.1 12.2 0.00 0.04 0.04 43 1012.8
20260905191546 85 181 6.1 13.9 0.00 0.04 0.04 42 1012.2